Presure
173 177 175 171 182 171 175 170 165 172 166 155 153 149 155 149 140 123 147 125 141 148 133 121 123 152 116 123 149 136 128 158 145 169 159 146 152 172 177 180 175 184 171
174 173 174 181 174 173 168 165 164 162 155 159 164 137 135 144 142 127 129 130 126 129 127 130 135 147 157 134 123 133 178 160 127 114 175 131 139 148 144 159 174 172 171
180 180 177 173 173 172 170 166 167 169 170 153 167 155 167 151 139 154 147 142 145 145 128 132 155 138 142 148 133 135 171 144 187 110 118 184 118 129 130 136 117 159 163
186 182 157 181 178 175 171 174 172 170 165 163 160 167 159 154 151 156 156 154 160 143 158 140 138 143 126 122 124 136 120 151 117 109 153 151 160 131 155 130 163 113 164
131 188 187 138 179 183 177 172 172 172 171 169 171 169 164 166 169 145 156 153 142 139 135 159 133 153 133 137 143 125 120 129 147 147 132 152 166 151 128 159 129 128 160
187 183 186 154 147 130 149 186 180 174 173 172 174 174 176 176 169 162 158 161 161 168 168 153 151 151 149 145 140 149 128 118 117 130 123 127 135 157 141 169 128 132 132
189 193 195 191 185 188 190 141 160 185 181 179 176 176 173 172 172 173 172 169 168 166 171 173 168 164 162 150 140 165 158 132 130 134 147 142 126 134 140 138 149 120 165
187 185 188 191 195 140 197 196 194 186 186 192 191 186 181 184 185 172 170 171 172 174 173 173 172 172 174 174 145 148 161 171 168 133 135 129 123 148 131 130 141 161 127
190 191 189 188 187 187 190 193 194 149 196 195 197 194 192 192 174 182 181 182 183 185 181 174 172 171 173 177 177 172 173 174 174 171 162 148 135 137 169 176 178 155 132
193 190 190 191 190 190 189 189 190 158 192 194 200 125 83 203 153 184 181 117 193 190 185 185 183 184 186 187 187 185 184 182 180 181 181 181 181 181 162 178 174 173 173
197 196 195 191 191 188 189 192 193 196 195 194 194 195 197 200 201 203 206 194 195 163 161 172 195 192 192 192 193 192 189 188 186 186 186 185 184 184 183 183 183 184 187
198 200 200 199 197 196 194 191 189 188 191 193 197 199 198 200 200 202 203 202 200 202 203 205 203 172 163 183 192 207 205 200 196 194 192 192 192 190 188 186 189 191 193
198 197 196 192 191 191 191 190 188 187 189 192 194 195 197 198 202 203 202 203 206 208 198 198 135 196 202 203 203 197 208 203 207 211 213 201 202 202 198 185 199 199 196
191 191 191 191 192 193 193 194 194 197 199 202 203 201 199 199 201 198 198 198 197 195 203 210 210 210 172 169 200 196 125 206 211 202 186 196 186 212 215 216 215 213 213
206 206 204 204 203 204 205 207 207 210 209 209 210 211 211 210 208 208 210 208 209 213 216 219 222 207 204 205 204 208 206 209 228 223 223 218 199 197 198 195 194 199 199
208 207 205 204 204 203 204 204 205 205 206 206 206 206 206 205 204 204 204 204 204 204 205 206 208 211 212 212 213 213 219 230 225 223 223 220 212 214 217 215 205 196 196
210 211 214 217 216 214 214 215 217 218 218 220 222 220 218 214 215 216 217 219 220 221 218 218 220 219 222 222 228 230 228 224 222 217 215 219 218 217 222 223 225 224 216
227 228 230 232 233 234 235 236 237 262 260 259 272 273 274 279 275 270 272 278 280 280 278 276 275 274 270 267 269 270 274 273 186 253 247 241 234 228 222 219 220 221 139
270 276 278 245 246 245 244 246 250 256 260 255 286 295 293 292 288 290 291 294 289 273 290 280 289 280 276 273 272 263 260 255 254 255 260 269 275 273 265 261 255 235 228
256 268 270 273 294 297 299 293 288 285 283 290 302 357 352 361 369 420 359 360 360 399 414 415 416 418 417 407 423 293 292 283 275 286 247 244 241 240 240 240 240 258 265
287 289 283 279 278 316 334 340 357 356 355 395 397 398 405 404 409 411 414 402 394 394 395 400 398 376 398 397 399 400 403 413 422 379 379 383 333 300 273 279 276 262 264
350 391 387 384 352 381 378 376 373 371 368 365 363 362 362 361 360 358 360 365 374 386 400 400 384 370 366 367 371 376 380 381 384 411 389 352 367 374 372 341 310 266 264
367 364 360 357 353 351 350 348 348 348 347 345 344 345 344 343 344 344 344 344 338 336 335 336 342 353 381 378 362 354 353 362 363 369 380 384 351 346 359 357 349 336 332
345 347 356 367 375 378 381 397 462 462 466 471 475 483 491 498 505 398 377 325 326 321 320 322 327 326 329 331 340 356 356 353 348 356 364 360 396 356 345 332 352 341 330
347 346 379 458 451 446 440 441 442 442 451 456 452 450 448 449 454 450 453 454 465 402 407 359 368 378 343 309 311 318 325 338 347 350 347 343 403 421 387 341 341 331 337
369 459 448 441 434 425 421 421 417 414 413 416 423 431 438 441 443 446 449 453 462 471 468 467 467 469 445 356 366 378 308 309 314 327 345 346 346 358 382 410 376 344 335
Wind_Speed
53 52 54 54 55 54 54 54 55 54 56 62 63 63 61 65 67 63 64 62 62 61 62 61 60 56 58 57 53 57 58 51 55 50 50 55 53 49 46 45 47 46 52
57 58 58 56 58 59 59 60 60 61 64 63 62 71 70 69 70 68 68 68 67 66 65 64 65 63 56 63 61 60 52 56 59 60 51 58 57 57 57 55 52 53 54
62 62 63 63 63 64 64 65 64 64 64 70 66 72 66 71 74 72 74 73 74 73 69 69 65 67 67 62 65 64 56 61 56 65 64 56 64 61 61 61 63 61 60
67 68 62 68 69 70 69 69 69 70 71 72 73 73 76 77 77 77 76 79 75 78 75 76 73 74 73 72 71 70 69 66 69 72 68 67 65 65 66 65 64 69 63
61 71 72 61 72 74 75 74 74 75 76 77 77 78 79 79 78 80 82 82 83 81 79 79 79 80 79 78 77 75 75 74 74 73 72 73 71 71 70 70 71 71 71
75 75 76 69 69 66 70 80 81 81 81 82 82 83 84 84 85 85 84 84 85 84 84 86 85 85 85 84 83 83 80 79 78 78 78 77 76 78 76 75 75 76 76
78 81 82 82 81 83 84 73 79 87 87 88 88 90 89 90 90 89 89 89 90 90 90 90 90 90 89 90 89 87 88 86 85 85 85 84 82 81 83 81 83 76 82
82 82 83 85 86 61 88 90 91 90 91 94 95 96 95 96 97 96 94 94 94 96 96 96 95 95 95 95 94 94 93 92 91 90 91 88 87 90 88 86 87 89 85
87 87 87 88 89 89 91 93 94 74 97 98 100 101 101 103 98 101 101 101 101 101 102 102 101 100 101 101 101 99 98 97 97 97 97 96 95 95 95 93 92 96 91
91 92 92 93 94 95 96 97 98 84 100 101 103 65 46 108 88 104 103 65 108 108 107 108 108 108 108 108 108 107 108 107 106 105 104 102 102 101 100 99 98 97 96
95 97 97 98 99 99 100 101 102 103 105 106 106 107 108 109 110 111 111 109 110 103 103 107 114 115 116 116 115 114 113 112 112 112 111 110 109 107 107 107 105 104 103
101 102 103 103 104 104 105 106 107 108 109 110 111 112 113 114 115 115 116 116 116 116 116 116 116 114 111 116 118 122 121 120 119 119 117 116 116 114 111 110 110 109 109
105 106 106 106 107 109 110 111 112 113 114 116 117 117 118 119 120 121 121 122 123 123 121 121 93 120 121 123 123 124 125 123 123 124 125 122 123 122 120 115 117 117 116
109 110 111 112 114 115 117 117 119 121 123 124 124 125 126 126 127 127 127 128 128 128 130 131 131 130 115 114 127 125 88 128 127 126 124 125 121 126 124 124 123 122 121
114 117 119 120 122 123 125 126 127 128 129 129 130 131 132 134 134 135 136 137 137 138 138 138 138 137 135 134 132 132 132 133 135 133 132 131 129 128 128 126 125 125 124
119 121 123 124 127 128 130 131 132 133 135 136 137 138 139 140 141 142 143 144 144 144 145 145 145 144 143 142 142 140 140 141 139 140 140 136 133 134 135 135 133 130 128
121 123 125 127 128 130 132 134 136 136 138 139 140 142 144 145 146 148 149 150 151 152 153 153 153 154 155 155 154 152 148 147 146 142 142 143 141 139 140 140 140 138 136
129 131 133 135 136 138 139 141 143 142 144 145 145 146 146 146 147 149 149 149 149 149 150 152 153 153 155 156 156 155 153 151 109 152 151 149 150 148 145 145 144 141 92
135 135 136 137 139 140 142 143 145 146 147 147 144 143 144 144 146 146 147 147 148 152 147 151 149 150 153 156 156 158 158 157 156 154 152 152 150 150 152 152 153 149 147
137 138 139 141 141 142 141 140 140 140 141 138 143 135 135 133 130 103 132 131 131 112 104 103 102 101 100 106 101 153 153 154 156 154 155 152 151 150 149 149 149 151 152
139 139 138 138 139 132 136 134 122 122 121 102 102 101 99 100 99 98 98 102 103 103 102 100 99 108 100 99 99 100 99 102 108 116 117 121 140 145 153 153 152 151 153
106 91 92 94 111 97 99 99 100 101 101 102 103 103 104 104 104 105 104 102 100 98 96 97 101 102 103 102 101 102 101 101 102 105 115 120 121 125 131 138 145 152 152
91 93 95 96 98 99 101 102 103 103 104 105 106 106 107 107 107 107 107 107 107 107 106 105 103 101 98 99 101 103 103 102 103 101 105 114 121 122 125 131 137 138 139
92 93 93 94 94 94 95 92 74 74 73 72 73 73 73 74 74 98 102 108 108 108 108 107 106 105 105 103 101 100 101 103 103 102 103 106 111 122 124 125 130 134 137
89 91 84 64 65 65 67 68 67 66 65 65 67 69 71 72 73 76 78 80 81 94 94 103 102 101 104 106 105 105 103 102 101 102 102 104 99 101 114 125 127 128 135
76 56 59 60 61 62 63 63 63 64 64 63 63 62 62 63 64 65 66 69 70 72 75 79 82 84 90 102 102 101 107 105 105 104 102 102 103 103 104 103 118 127 127
Wind_Direction
237 238 239 241 244 240 243 241 239 243 240 237 237 241 238 240 242 244 245 245 248 247 248 246 248 249 247 248 248 252 250 247 248 254 256 246 248 258 257 255 253 254 253
239 239 239 242 241 242 242 240 240 240 238 240 241 241 243 242 243 245 247 247 247 248 249 250 251 248 249 249 247 251 256 251 250 246 256 252 253 251 252 254 256 256 257
241 241 241 241 241 242 243 243 244 245 246 240 244 242 243 243 247 245 248 249 249 249 249 250 248 249 250 251 251 251 254 252 256 251 252 258 252 257 258 259 254 253 255
245 244 246 243 243 242 244 244 245 245 245 245 244 246 244 244 244 245 246 247 248 251 247 252 250 252 249 248 249 254 251 252 251 253 255 255 254 255 253 255 254 255 254
253 248 249 253 247 246 245 246 246 247 248 248 248 248 249 249 248 250 248 249 251 251 251 248 252 249 252 253 254 250 250 253 255 255 255 255 252 256 257 255 260 261 252
251 253 252 254 255 256 254 249 248 250 250 251 251 251 252 252 250 250 251 250 251 253 252 250 250 251 252 253 254 253 253 253 255 254 255 256 257 254 255 252 258 258 260
252 253 253 254 254 254 254 254 254 252 252 253 254 254 254 255 254 253 253 253 254 255 255 255 253 252 251 252 254 252 252 254 255 256 255 257 258 258 257 258 257 261 254
254 255 255 256 257 258 257 257 257 256 256 257 257 255 255 255 255 256 256 256 256 257 258 258 258 258 258 258 253 254 254 254 255 255 256 258 260 257 259 259 259 255 262
257 257 257 258 258 258 259 259 260 258 259 259 259 259 259 258 257 257 257 257 257 257 258 259 259 260 260 260 260 260 260 259 258 257 256 256 257 256 257 258 258 257 260
258 258 258 258 258 259 259 260 260 260 260 260 261 262 265 261 259 259 259 264 260 260 261 261 262 262 262 261 261 261 261 261 261 261 261 261 261 261 259 261 259 259 260
259 259 260 260 260 259 260 260 260 261 261 262 262 262 262 262 262 262 262 262 261 259 259 260 261 262 263 263 263 262 262 262 262 262 262 262 262 262 262 262 263 263 263
260 260 261 261 262 262 263 263 262 262 262 262 263 263 262 263 263 264 263 262 261 261 261 261 260 261 262 262 262 263 262 262 262 262 262 262 263 263 262 263 263 264 264
261 262 262 262 263 263 263 263 264 264 264 265 264 264 264 264 264 264 264 264 264 264 261 261 260 260 260 260 261 261 262 261 261 262 262 262 263 263 263 262 263 263 264
263 263 263 263 263 263 263 264 264 265 265 266 266 266 267 267 266 266 265 265 264 264 264 264 263 262 261 260 259 260 257 262 262 261 261 262 262 262 262 262 263 263 263
262 262 263 264 264 264 264 264 265 265 265 265 265 265 266 266 266 266 266 266 266 266 265 264 263 264 264 263 262 261 261 262 263 262 261 261 261 261 262 262 263 263 263
264 264 265 265 266 266 266 265 265 264 264 264 264 264 264 264 265 265 266 266 267 267 267 267 267 267 265 264 264 264 263 261 262 263 264 263 262 262 262 262 263 263 263
266 266 266 265 265 265 265 265 265 264 264 264 263 262 262 262 262 262 262 262 263 263 264 265 265 266 266 267 266 265 264 263 263 263 263 264 264 264 263 263 263 263 264
271 271 270 270 269 269 269 269 268 269 268 268 268 267 266 266 265 264 264 264 263 262 262 262 262 262 263 263 263 262 261 260 261 262 261 261 261 262 262 264 264 264 264
274 274 274 271 271 270 270 269 269 269 269 269 271 271 270 269 267 267 266 265 264 263 263 262 262 261 261 262 262 262 262 262 262 262 261 259 258 257 258 259 260 260 261
274 275 275 275 277 277 276 275 275 273 273 272 272 272 272 271 270 271 269 269 268 267 266 265 264 263 262 260 258 260 260 260 260 259 262 261 261 261 260 260 260 259 259
278 278 278 277 277 277 276 276 276 275 274 274 273 273 272 271 271 270 269 269 268 268 266 265 264 264 262 261 260 258 256 253 251 251 249 248 253 254 256 255 255 257 257
281 282 281 280 279 279 278 277 277 276 276 274 273 272 271 271 270 270 269 268 267 267 266 265 263 262 261 260 259 258 256 254 252 249 248 249 247 247 246 247 251 256 256
282 281 281 280 279 278 278 277 276 276 275 274 273 272 272 271 270 270 269 268 267 267 266 265 264 262 261 260 259 258 257 256 254 251 249 248 247 246 245 246 246 247 247
282 282 283 284 283 282 281 280 284 283 282 282 281 279 278 277 276 271 269 268 267 267 265 264 263 262 262 261 259 258 256 256 254 253 251 249 247 247 246 247 246 246 246
286 285 287 291 290 289 288 287 287 286 286 285 282 281 279 278 277 275 273 271 270 267 266 264 263 262 260 260 259 258 257 256 255 254 252 251 249 248 247 247 246 246 246
290 298 296 294 292 291 290 289 289 287 287 287 286 286 285 284 282 280 278 277 276 274 271 268 266 262 261 259 258 257 256 255 255 254 252 251 250 249 247 247 247 247 247